Вернуться в каталог

CZ-4C SEP MOTOR COVER

АктивенLEO
NORAD 47697·DEBRIS·🇨🇳 China
Это название спутника еще не подтверждено официальными источниками.

Запущен Feb 24, 2021 с Jiuquan Satellite Launch Center

Loading…

Ближайшие Пролёты (ближайшие 24 часа)

TLE

СвежийSource: Space-Track

Эпоха: Sep 14, 2026, 09:05 UTC

1 47697U 21014G   26257.37880345 -.00000083  00000-0  10068-4 0  9992
2 47697  63.3992   2.8182 0167896   0.0862   0.0163 13.41618733271963

Отслеживайте CZ-4C SEP MOTOR COVER в реальном времени с AllMySat

Download on the App Store